RH
12 14 21 22 39 47 54 56 62 70 68 67 63 70 68 70 74 73 82 78 76 77 70 72 69 68 70 74 78 80 75 83
11 14 17 23 40 47 54 57 63 67 67 68 66 66 70 66 68 68 76 78 74 75 73 74 73 71 72 80 77 78 87 81
12 14 17 27 36 46 54 56 61 64 65 63 62 61 63 63 64 65 67 75 72 71 74 76 76 74 80 85 84 87 86 87
12 14 20 25 32 46 51 56 62 64 66 63 62 61 62 64 63 63 64 70 71 72 76 77 78 78 86 87 86 85 92 92
12 13 19 27 28 39 47 52 58 63 67 62 65 57 58 58 59 60 63 70 71 72 72 73 83 86 88 89 89 90 91 96
13 14 14 20 29 33 45 50 53 58 63 60 61 60 58 57 58 66 68 72 72 70 74 75 87 92 90 96 97 96 96 96
14 15 15 14 34 36 40 46 50 57 63 62 62 64 62 60 62 67 68 70 72 75 75 81 95 96 96 97 97 96 91 93
15 14 13 15 22 37 38 38 47 54 65 66 64 64 66 64 63 65 70 76 80 81 89 97 96 95 94 92 92 92 92 88
15 15 15 15 19 37 41 36 39 49 62 69 66 65 62 60 62 65 73 87 89 95 95 93 92 90 90 88 86 88 86 85
16 15 18 21 21 32 45 41 36 42 55 67 71 67 66 62 67 81 88 90 95 96 93 92 90 88 84 83 85 84 86 86
18 19 23 20 24 35 48 45 42 42 53 62 70 68 68 71 83 89 92 94 94 93 90 86 84 82 81 78 80 83 85 89
24 23 24 25 28 32 54 51 44 50 52 61 72 72 72 84 90 91 92 93 91 88 83 82 80 78 74 76 78 79 80 80
25 26 27 27 30 32 49 54 51 50 52 63 73 75 88 90 92 92 91 92 87 82 78 76 73 70 72 74 72 74 75 81
26 34 37 35 34 33 48 57 58 58 55 72 84 92 92 94 94 93 90 87 83 76 73 72 70 71 72 73 73 75 76 78
29 42 47 46 46 49 56 74 86 84 85 91 94 95 94 94 92 91 88 84 80 74 73 71 70 70 69 66 71 76 78 79
31 36 45 46 52 54 72 87 89 87 89 92 95 94 92 91 91 88 85 78 79 75 71 72 72 70 63 70 72 77 80 83
31 33 37 41 45 52 74 86 92 89 91 93 92 93 92 92 90 86 81 79 72 72 73 74 76 60 81 80 76 79 79 84
33 37 37 42 46 48 70 84 88 91 93 92 92 91 92 90 84 80 78 79 80 76 77 75 79 84 83 83 84 86 90 98
33 37 40 39 42 46 57 76 83 90 92 90 89 89 88 85 82 79 78 78 80 81 80 84 87 86 88 91 93 95 96 96
Wind_Speed
17 16 17 17 18 22 21 17 16 17 11 10 8 7 7 8 9 9 12 10 11 6 5 5 6 3 4 3 3 3 3 4
18 18 15 18 16 21 22 21 18 15 13 13 11 11 10 9 10 13 15 14 13 9 5 5 6 5 5 5 4 6 4 2
20 18 17 15 17 22 22 22 21 16 13 13 10 11 10 10 8 11 12 16 14 10 8 5 6 4 6 6 5 2 1 2
19 19 18 16 16 20 23 24 23 20 19 11 10 9 8 10 11 10 10 16 13 11 9 6 7 7 4 4 5 5 3 1
18 16 12 17 17 17 23 23 24 21 21 17 21 14 15 12 12 9 10 12 12 12 12 10 6 5 5 4 4 4 4 4
18 14 15 12 17 15 15 21 22 22 22 20 16 15 12 10 10 13 12 11 12 12 10 11 6 5 5 7 5 5 3 4
18 17 18 18 16 17 16 18 22 23 23 22 20 20 16 12 14 12 11 11 10 12 12 9 8 9 8 7 6 6 6 5
26 27 24 20 17 22 19 21 22 22 24 23 20 20 16 16 16 13 15 11 10 13 12 11 9 9 9 9 8 7 6 4
22 25 27 24 22 21 22 24 23 23 23 23 22 20 14 11 16 13 12 10 10 12 11 11 11 12 10 8 5 5 7 6
13 16 14 14 16 13 24 22 24 25 24 21 22 18 19 14 16 14 12 12 11 12 12 12 12 11 8 8 6 7 7 6
12 11 7 13 11 9 20 19 21 20 20 20 18 20 17 12 14 16 16 14 15 15 14 14 13 11 11 9 7 7 7 5
7 8 7 5 7 9 17 17 17 13 13 18 19 18 16 16 15 16 16 16 17 17 16 14 13 13 10 10 9 9 9 7
7 6 6 4 3 7 18 17 16 15 13 17 18 17 15 17 16 17 16 17 17 18 17 15 14 13 11 11 11 9 9 8
4 6 7 6 2 4 11 12 11 8 11 14 13 13 17 16 16 16 18 19 17 17 16 16 15 14 12 11 11 10 9 8
4 8 6 3 2 2 6 8 8 9 9 13 14 14 16 15 17 17 18 18 17 16 16 14 14 14 13 12 12 10 9 7
4 4 3 3 5 3 7 7 6 7 11 13 13 12 13 15 16 16 15 16 16 14 15 13 14 13 11 14 12 12 12 9
5 0 9 6 5 5 8 7 7 8 10 11 13 14 14 15 15 16 16 15 15 15 15 15 14 10 16 17 14 13 13 12
6 5 5 7 7 7 10 10 8 8 9 10 12 15 15 16 16 16 17 16 15 15 15 14 11 9 17 17 16 11 11 10
6 6 6 4 6 8 7 13 11 9 8 11 13 14 16 17 17 18 17 15 16 15 15 13 12 8 18 17 18 12 11 10
Wind_Direction
216 204 189 188 168 166 169 175 179 174 179 188 185 162 185 162 187 177 182 198 220 213 190 191 170 197 206 186 172 193 180 221
214 203 203 184 165 167 170 171 178 173 183 188 188 190 179 199 180 190 181 188 205 199 192 182 163 192 214 172 182 196 230 76
218 202 195 183 173 169 169 175 176 183 187 190 190 185 181 188 190 190 191 183 195 190 185 185 170 189 204 193 191 126 166 178
216 209 189 184 174 171 174 174 178 182 187 184 196 176 180 185 197 188 187 179 184 182 179 203 185 192 188 163 159 187 202 69
207 215 194 186 188 173 175 178 177 183 181 188 193 192 191 189 188 179 181 174 180 180 183 200 186 174 161 181 186 215 153 153
215 219 203 189 183 188 182 182 183 182 185 191 189 198 197 180 180 170 174 176 182 182 191 189 178 153 136 122 121 134 127 148
223 216 211 213 180 187 185 189 189 187 186 194 192 198 191 181 177 174 175 179 182 189 188 182 133 128 141 150 139 158 161 153
215 212 217 213 194 185 190 193 194 191 186 193 199 195 200 183 178 175 173 173 185 189 161 148 142 142 147 151 160 172 173 167
209 213 214 214 216 182 191 192 196 192 187 191 199 195 196 193 179 174 176 168 165 154 146 143 144 149 153 164 129 104 92 83
218 216 214 204 202 190 187 194 197 194 191 188 195 196 191 197 173 158 159 153 150 148 147 149 147 156 148 121 112 114 101 95
225 221 234 219 193 166 176 189 193 198 190 189 191 197 190 178 150 158 161 153 149 150 152 152 150 135 127 118 124 118 116 109
220 208 194 232 185 169 168 178 187 191 201 186 186 193 186 152 159 161 162 155 156 156 150 151 144 138 137 138 134 131 125 132
168 194 201 127 152 159 170 178 183 187 194 185 180 184 152 159 159 164 158 155 160 154 152 147 147 147 141 144 142 135 135 128
161 122 96 110 165 184 151 164 178 186 192 173 163 146 154 155 155 158 158 154 157 153 150 150 151 150 144 141 134 134 134 136
63 101 111 158 188 182 129 114 119 125 138 137 143 147 153 151 150 158 158 160 156 151 146 155 150 145 142 139 134 131 124 114
115 110 114 173 161 206 116 100 116 140 142 143 145 143 148 144 149 154 154 153 152 150 144 147 147 143 145 141 136 130 121 120
155 165 155 186 181 199 153 146 143 159 156 152 145 146 151 148 148 152 148 148 149 145 148 147 145 148 139 135 139 132 137 136
181 162 135 157 170 199 161 158 144 163 156 157 157 154 152 154 150 150 152 150 151 150 145 146 125 122 128 128 126 133 134 121
317 174 162 166 168 181 161 148 157 162 163 163 163 163 159 158 156 155 152 153 155 152 146 125 121 117 116 117 114 117 116 122